ANIK F3

导读

ANIK F3是加拿大阿尼克(ANIK)系列通信卫星之一,由加拿大联合私营电信机构推进项目,于2007年4月9日发射入轨。作为加拿大新一代国内通信卫星,它延续了阿尼克系列服务加拿大全境通信、电视广播的定位,依托空间波束隔离、频率复用等技术,提升了信号覆盖与传输容量,助力加拿大幅员辽阔区域的通信连接,是加拿大航天领域依靠国际合作推进国内卫星通信网络建设的典型体现。

Basic Information
目录编号:
31102
目录名称:
ANIK F3
国际标识:
2007-009A
轨道中心:
EARTH
卫星名称:
ANIK F3
卫星全名:
--
卫星状态:
在轨 (已飞行7036 天)
发射日期:
2007-04-09 UTC
国别 :
加拿大 (CA)
星等 :
--
Orbit Information
数据来源 国际轨道数据 AOE轨道数据
星历时间 2026-07-14T00:19:18+0800
14小时前
查看轨道信息
2026-07-12T15:00:00+0800
1天前
查看轨道信息
半长轴 42165.037km 42164.868km
偏心率 0.0002414 0.0002477
轨道倾角 1.264° 1.260°
近地点辐角 27.327° 30.122°
升交点赤经 83.532° 83.541°
平近点角 306.793° 162.806°
近地点 35776.721km 35776.286km
远地点 35797.079km 35797.176km
周期 1436.112分钟 1436.104分钟
每日圈数 1.002707 1.002713
Detailed Information
使用方式:
暂无
2D Orbit Map
3D Orbit Map
Orbit Altitude Analysis Chart
Orbit Inclination Analysis Chart
Orbit Comprehensive Analysis Chart
View Comprehensive Chart